Date,TemperatureHighF,TemperatureAvgF,TemperatureLowF,DewpointHighF,DewpointAvgF,DewpointLowF,HumidityHigh,HumidityAvg,HumidityLow,PressureMaxIn,PressureMinIn,WindSpeedMaxMPH,WindSpeedAvgMPH,GustSpeedMaxMPH,PrecipitationSumIn
2013-5-1,88.3,75.1,57.6,62.0,57.8,53.6,98,60,32,30.14,29.98,11,3,11,0.00
2013-5-2,65.1,51.3,42.1,58.9,46.7,41.2,98,85,68,30.19,30.10,23,10,23,0.00
2013-5-3,42.1,42.1,42.1,41.3,41.3,41.3,97,97,97,30.13,30.13,12,12,17,0.00
2013-5-4,42.1,42.1,42.1,41.3,41.3,41.3,97,97,97,30.13,30.13,12,12,17,0.00
2013-5-5,42.1,42.1,42.1,41.3,41.3,41.3,97,97,97,30.13,30.13,12,12,17,0.00
2013-5-6,73.8,49.1,42.1,46.6,42.0,40.3,97,81,35,30.13,29.90,16,10,17,0.08
2013-5-7,75.6,62.1,46.8,55.7,48.0,44.0,94,63,42,29.99,29.92,14,5,14,0.00
2013-5-8,79.7,67.2,50.5,58.6,51.7,46.6,97,61,33,29.98,29.91,14,4,14,0.00
2013-5-9,83.8,64.6,50.7,62.2,56.6,50.2,99,79,38,29.93,29.77,10,2,10,0.35
2013-5-10,61.2,48.5,41.0,60.6,48.1,40.7,99,99,97,29.91,29.71,24,9,24,0.02
2013-5-11,64.8,48.4,39.7,57.0,43.7,34.4,99,85,56,29.96,29.78,27,5,27,0.06
2013-5-12,56.3,46.6,39.0,37.7,31.8,27.6,91,58,36,30.05,29.96,23,6,23,0.01
2013-5-13,69.6,53.8,33.4,40.1,31.7,22.9,98,49,18,30.12,29.99,14,3,14,0.00
2013-5-14,96.3,72.9,50.9,63.4,50.4,32.1,69,47,25,29.99,29.64,19,4,19,0.00
2013-5-15,84.6,74.6,60.3,63.3,56.2,49.6,84,55,34,29.78,29.62,18,5,18,0.00
2013-5-16,89.1,70.7,52.7,58.2,49.5,40.0,99,54,22,29.92,29.77,14,3,14,0.00
2013-5-17,81.7,68.4,57.0,65.9,57.5,45.6,99,70,47,29.99,29.91,14,2,14,0.09
2013-5-18,86.2,70.8,57.2,66.6,61.6,50.9,99,75,48,30.02,29.91,13,1,13,0.00
2013-5-19,93.2,77.3,60.6,70.1,65.2,60.2,99,69,42,29.93,29.74,14,2,14,0.00
2013-5-20,92.5,80.3,70.2,72.2,67.3,60.1,98,68,36,29.80,29.69,16,4,16,0.01
2013-5-21,86.5,73.3,63.5,71.3,66.8,62.7,99,82,54,29.77,29.64,18,4,18,0.70
2013-5-22,80.1,70.1,62.2,71.1,64.6,54.1,99,84,46,29.71,29.60,16,4,16,0.09
2013-5-23,72.1,48.0,41.0,58.9,46.0,37.4,99,93,72,30.19,29.70,29,11,29,0.44
2013-5-24,57.0,48.0,39.0,44.3,39.2,31.0,99,74,40,30.35,30.18,17,7,17,0.00
2013-5-25,62.6,49.6,37.2,51.9,43.9,36.2,99,82,62,30.33,30.21,9,3,9,0.00
2013-5-26,78.1,58.8,41.9,56.4,49.3,41.6,99,75,39,30.25,30.08,9,2,9,0.05
2013-5-27,65.8,58.7,53.8,63.0,58.1,53.0,99,98,87,30.09,29.81,12,3,12,0.38
2013-5-28,83.3,70.2,62.8,73.6,67.3,61.9,99,91,67,29.86,29.72,34,3,34,0.54
2013-5-29,90.9,75.5,63.1,74.3,67.7,62.3,99,79,52,29.92,29.78,14,3,14,0.07
2013-5-30,86.4,73.7,65.8,73.5,67.8,63.9,99,83,62,29.93,29.89,13,3,13,0.00
2013-5-31,79.3,70.1,65.5,71.1,67.4,64.6,99,92,73,29.89,29.72,6,3,6,0.17